Date String (YYYY-MM-DD hh:mm:ss) UTC,Instrument flags,Ambient pressure (hPa),Sample flow (lpm),Bypass flow (lpm),Sample temperature (°C),Ambient temperature (°C),ASC tube jacket temperature (°C),LED temperature (°C),Box temperature (°C),Sample RH (%),Span deviation,Mass concentration (μg/m³),Mass concentration (μg/m³),Mass concentration (μg/m³)
DateTimeUTC,F1_M11,P_M11,Q1_M11,Q2_M11,T1_M11,T2_M11,T3_M11,T4_M11,T5_M11,U1_M11,ZSPAN_M11,X0_M11,X2_M11,X1_M11
2022-07-02 00:00:00,,0826.7,5.00,0.00,29.3,27.2,00.0,38.1,31.2,26.7,0000.0,0013.38,0005.17,0004.20
2022-07-02 00:01:00,,0826.7,5.00,0.00,29.3,27.3,00.0,38.1,31.2,26.6,0000.0,0013.73,0005.16,0004.20
2022-07-02 00:02:00,,0826.8,5.00,0.00,29.3,27.5,00.0,38.1,31.2,26.8,0000.0,0015.02,0005.15,0004.21
2022-07-02 00:03:00,,0826.7,5.00,0.00,29.3,27.7,00.0,38.1,31.2,26.7,0000.0,0015.70,0005.16,0004.21
2022-07-02 00:04:00,,0826.8,5.00,0.00,29.3,27.9,00.0,38.1,31.3,26.5,0000.0,0015.80,0005.18,0004.21
2022-07-02 00:05:00,,0826.8,4.99,0.00,29.3,28.0,00.0,38.1,31.3,26.8,0000.0,0015.96,0005.17,0004.20
2022-07-02 00:06:00,,0826.8,5.00,0.00,29.4,28.2,00.0,38.1,31.4,27.2,0000.0,0015.32,0005.12,0004.20
2022-07-02 00:07:00,,0826.8,5.00,0.00,29.4,28.3,00.0,38.1,31.4,27.4,0000.0,0014.86,0005.08,0004.20
2022-07-02 00:08:00,,0826.8,5.00,0.00,29.5,28.5,00.0,38.1,31.5,27.3,0000.0,0013.23,0005.04,0004.21
2022-07-02 00:09:00,,0826.8,5.00,0.00,29.5,28.6,00.0,38.2,31.5,26.5,0000.0,0012.88,0005.09,0004.22
2022-07-02 00:10:00,,0826.8,5.00,0.00,29.5,28.2,00.0,38.1,31.5,26.2,0000.0,0013.14,0005.08,0004.23
2022-07-02 00:11:00,,0826.8,5.00,0.00,29.5,27.4,00.0,38.1,31.3,26.1,0000.0,0012.93,0005.08,0004.23
2022-07-02 00:12:00,,0826.7,4.99,0.00,29.4,27.1,00.0,38.1,31.2,26.1,0000.0,0012.69,0005.10,0004.24
2022-07-02 00:13:00,,0826.7,5.01,0.00,29.4,27.1,00.0,38.1,31.2,26.3,0000.0,0011.79,0005.13,0004.25
2022-07-02 00:14:00,,0826.7,5.00,0.00,29.3,27.2,00.0,38.1,31.2,26.4,0000.0,0011.47,0005.18,0004.27
2022-07-02 00:15:00,,0826.7,4.99,0.00,29.3,27.4,00.0,38.0,31.2,26.1,0000.0,0011.95,0005.16,0004.29
2022-07-02 00:16:00,,0826.7,4.99,0.00,29.3,27.6,00.0,38.1,31.2,26.0,0000.0,0012.08,0005.20,0004.30
2022-07-02 00:17:00,,0826.7,5.00,0.00,29.3,27.8,00.0,38.1,31.3,25.8,0000.0,0011.90,0005.26,0004.31
2022-07-02 00:18:00,,0826.7,5.00,0.00,29.3,28.0,00.0,38.1,31.3,25.5,0000.0,0012.86,0005.30,0004.32
2022-07-02 00:19:00,,0826.7,4.98,0.00,29.4,28.1,00.0,38.1,31.4,25.6,0000.0,0013.24,0005.37,0004.34
2022-07-02 00:20:00,,0826.7,5.00,0.00,29.4,28.3,00.0,38.1,31.4,25.8,0000.0,0013.30,0005.46,0004.35
2022-07-02 00:21:00,,0826.7,5.00,0.00,29.4,28.4,00.0,38.1,31.5,25.8,0000.0,0013.14,0005.50,0004.36
2022-07-02 00:22:00,,0826.7,5.00,0.00,29.5,28.5,00.0,38.1,31.5,25.8,0000.0,0015.07,0005.59,0004.38
2022-07-02 00:23:00,,0826.7,5.00,0.00,29.5,28.0,00.0,38.1,31.4,25.9,0000.0,0015.49,0005.66,0004.40
2022-07-02 00:24:00,,0826.6,5.00,0.00,29.4,27.3,00.0,38.1,31.3,26.2,0000.0,0015.37,0005.70,0004.41
2022-07-02 00:25:00,,0826.6,4.99,0.00,29.4,27.1,00.0,38.1,31.2,26.2,0000.0,0015.86,0005.74,0004.40
2022-07-02 00:26:00,,0826.6,4.99,0.00,29.3,27.1,00.0,38.1,31.1,26.2,0000.0,0016.18,0005.79,0004.40
2022-07-02 00:27:00,,0826.5,5.00,0.00,29.3,27.2,00.0,38.1,31.1,26.1,0000.0,0015.99,0005.80,0004.41
2022-07-02 00:28:00,,0826.5,5.00,0.00,29.3,27.4,00.0,38.0,31.1,25.9,0000.0,0016.06,0005.80,0004.42
2022-07-02 00:29:00,,0826.5,4.99,0.00,29.3,27.6,00.0,38.0,31.2,26.1,0000.0,0015.39,0005.81,0004.41
2022-07-02 00:30:00,,0826.6,5.00,0.00,29.3,27.8,00.0,38.1,31.2,25.9,0000.0,0015.82,0005.80,0004.40
2022-07-02 00:31:00,,0826.7,5.00,0.00,29.3,28.0,00.0,38.1,31.3,25.9,0000.0,0016.11,0005.72,0004.39
2022-07-02 00:32:00,,0826.7,5.00,0.00,29.4,28.1,00.0,38.1,31.4,26.1,0000.0,0017.72,0005.70,0004.39
2022-07-02 00:33:00,,0826.7,5.00,0.00,29.4,28.3,00.0,38.1,31.4,25.7,0000.0,0017.05,0005.70,0004.39
2022-07-02 00:34:00,,0826.7,5.01,0.00,29.4,28.4,00.0,38.1,31.5,26.1,0000.0,0016.29,0005.65,0004.40
2022-07-02 00:35:00,,0826.7,5.01,0.00,29.5,28.5,00.0,38.1,31.5,26.3,0000.0,0016.54,0005.67,0004.41
2022-07-02 00:36:00,,0826.7,5.01,0.00,29.5,28.3,00.0,38.1,31.5,26.2,0000.0,0016.59,0005.63,0004.43
2022-07-02 00:37:00,,0826.7,4.98,0.00,29.5,27.5,00.0,38.1,31.3,26.4,0000.0,0015.76,0005.60,0004.45
2022-07-02 00:38:00,,0826.7,5.00,0.00,29.4,27.1,00.0,38.1,31.2,26.7,0000.0,0015.46,0005.61,0004.47
2022-07-02 00:39:00,,0826.6,5.00,0.00,29.4,27.1,00.0,38.1,31.2,26.8,0000.0,0015.76,0005.60,0004.49
2022-07-02 00:40:00,,0826.7,4.99,0.00,29.3,27.2,00.0,38.1,31.1,26.9,0000.0,0016.04,0005.60,0004.52
2022-07-02 00:41:00,,0826.7,5.00,0.00,29.3,27.4,00.0,38.1,31.2,27.5,0000.0,0015.85,0005.66,0004.55
2022-07-02 00:42:00,,0826.7,5.00,0.00,29.3,27.6,00.0,38.1,31.2,25.3,0000.0,0015.28,0005.64,0004.55
2022-07-02 00:43:00,,0826.7,5.00,0.00,29.3,27.8,00.0,38.1,31.3,25.4,0000.0,0013.53,0005.62,0004.53
2022-07-02 00:44:00,,0826.7,5.00,0.00,29.3,27.9,00.0,38.1,31.3,25.4,0000.0,0012.85,0005.57,0004.51
2022-07-02 00:45:00,,0826.7,5.00,0.00,29.4,28.1,00.0,38.1,31.4,25.4,0000.0,0013.00,0005.52,0004.48
2022-07-02 00:46:00,,0826.7,5.01,0.00,29.4,28.3,00.0,38.1,31.4,25.0,0000.0,0012.72,0005.41,0004.44
2022-07-02 00:47:00,,0826.7,4.99,0.00,29.4,28.4,00.0,38.1,31.5,25.1,0000.0,0012.54,0005.35,0004.39
2022-07-02 00:48:00,,0826.6,5.01,0.00,29.5,28.5,00.0,38.1,31.5,25.2,0000.0,0012.67,0005.25,0004.32
2022-07-02 00:49:00,,0826.7,4.99,0.00,29.5,28.5,00.0,38.1,31.5,24.9,0000.0,0012.53,0005.13,0004.25
2022-07-02 00:50:00,,0826.7,5.00,0.00,29.5,27.8,00.0,38.1,31.4,25.1,0000.0,0012.84,0005.07,0004.20
2022-07-02 00:51:00,,0826.7,5.01,0.00,29.4,27.2,00.0,38.1,31.3,25.1,0000.0,0012.98,0004.99,0004.13
2022-07-02 00:52:00,,0826.7,5.01,0.00,29.4,27.0,00.0,38.1,31.2,25.1,0000.0,0012.68,0004.85,0004.06
2022-07-02 00:53:00,,0826.7,4.99,0.00,29.3,27.1,00.0,38.1,31.1,25.4,0000.0,0012.50,0004.77,0004.01
2022-07-02 00:54:00,,0826.7,4.99,0.00,29.3,27.3,00.0,38.0,31.1,25.5,0000.0,0012.46,0004.72,0003.99
2022-07-02 00:55:00,,0826.7,5.00,0.00,29.3,27.5,00.0,38.0,31.2,25.1,0000.0,0012.37,0004.66,0003.97
2022-07-02 00:56:00,,0826.7,5.00,0.00,29.3,27.7,00.0,38.1,31.2,24.6,0000.0,0011.92,0004.62,0003.95
2022-07-02 00:57:00,,0826.7,5.00,0.00,29.3,27.8,00.0,38.1,31.3,24.2,0000.0,0012.31,0004.66,0003.95
2022-07-02 00:58:00,,0826.6,5.00,0.00,29.3,28.0,00.0,38.1,31.3,24.1,0000.0,0011.76,0004.69,0003.95
2022-07-02 00:59:00,,0826.6,5.00,0.00,29.4,28.2,00.0,38.1,31.4,23.6,0000.0,0011.92,0004.74,0003.96
